Location: Kielce
(50.8833°N, 20.6167°E)
Time: 21:48:56
(UTC+02:00)

SR - Pass Details

Date: 29 April 2021
Orbit: 573 x 882 km, 66.7° (Epoch: 09 May)

Event Time Altitude Azimuth Distance (km) Brightness Sun altitude
Rises 11:24:15 0° 314° (NW) 3,491 ? 51.0°
Reaches altitude 10° 11:27:29 10° 331° (NNW) 2,545 ? 51.2°
Maximum altitude 11:31:48 20° 17° (NNE) 1,893 ? 51.5°
Drops below altitude 10° 11:35:59 10° 64° (ENE) 2,471 ? 51.8°
Sets 11:39:04 0° 81° (E) 3,359 ? 52.0°
